Stations météo

réclame
Mon MeteoGroup
San Sebastian/Fuenterrabia, Espagne (8029): Température de l'air & dewpoint: 08.08.2018 23:00:00 - 14.08.2018 23:00:00 (CEST)San Sebastian/Fuenterrabia, Espagne (8029): Vitesse du vent: 08.08.2018 23:00:00 - 14.08.2018 23:00:00 (CEST)San Sebastian/Fuenterrabia, Espagne (8029): Direction du vent: 08.08.2018 23:00:00 - 14.08.2018 23:00:00 (CEST)San Sebastian/Fuenterrabia, Espagne (8029): reduced air pressure: 08.08.2018 23:00:00 - 14.08.2018 23:00:00 (CEST)San Sebastian/Fuenterrabia, Espagne (8029): visibility: 08.08.2018 23:00:00 - 14.08.2018 23:00:00 (CEST)
Date & Time tt [°C] td [°C] ff [km/h] ff [knt] dd ppp [hPa] vv [km]
14.08.2018 23:00:00 20,0 18,0 5 3 SSW - 10
14.08.2018 22:00:00 21,0 18,0 4 2 - - 10
14.08.2018 21:00:00 22,0 18,0 8 4 N - 10
14.08.2018 20:00:00 23,2 16,7 8 4 N 1022,2 10
14.08.2018 19:00:00 24,0 18,0 9 5 NNW - 10
14.08.2018 18:00:00 24,0 18,0 11 6 N - 10
14.08.2018 17:00:00 25,2 16,9 11 6 NNW 1022,6 10
14.08.2018 16:00:00 24,0 17,0 9 5 NW - 10
14.08.2018 15:00:00 23,0 17,0 9 5 NW - 10
14.08.2018 14:00:00 24,2 16,7 9 5 N 1022,6 10
14.08.2018 13:00:00 24,0 17,0 11 6 N - 10
14.08.2018 12:00:00 23,0 17,0 13 7 N - 10
14.08.2018 11:00:00 21,0 17,8 8 4 NNW 1022,0 10
14.08.2018 10:00:00 20,0 18,0 11 6 WSW - 10
14.08.2018 09:00:00 19,0 18,0 13 7 SW - 10
14.08.2018 08:00:00 19,0 17,3 13 7 SW 1020,7 10
14.08.2018 07:00:00 19,0 18,0 8 4 SW - 10
14.08.2018 06:00:00 19,0 18,0 4 2 - - 10
14.08.2018 05:00:00 19,0 18,0 8 4 WSW - 10
14.08.2018 04:00:00 19,0 18,0 5 3 SSW - 10
14.08.2018 03:00:00 19,0 18,0 11 6 WSW - 3,7
14.08.2018 02:00:00 20,0 18,0 8 4 SW - 10
14.08.2018 01:00:00 20,0 19,0 9 5 SW - 10
14.08.2018 00:00:00 20,0 18,0 9 5 WSW - 10
13.08.2018 23:00:00 20,0 18,0 5 3 NW - 9
13.08.2018 22:00:00 21,0 18,0 9 5 WSW - 10
13.08.2018 21:00:00 21,0 18,0 9 5 WNW - 10
13.08.2018 20:00:00 21,6 17,6 11 6 WNW 1017,8 10
13.08.2018 19:00:00 22,0 18,0 9 5 WNW - 10
13.08.2018 18:00:00 23,0 18,0 16 9 WNW - 10
13.08.2018 17:00:00 21,5 18,1 8 4 W 1017,5 10
13.08.2018 16:00:00 21,0 19,0 8 4 - - 10
13.08.2018 15:00:00 22,0 19,0 13 7 WSW - 10
13.08.2018 14:00:00 20,5 19,5 8 4 W 1017,6 9
13.08.2018 13:00:00 20,0 19,0 8 4 S - 9
13.08.2018 12:00:00 20,0 19,0 8 4 SW - 9
13.08.2018 11:00:00 20,7 19,5 5 3 SW 1016,9 8
13.08.2018 10:00:00 20,0 19,0 8 4 - - 10
13.08.2018 09:00:00 20,0 19,0 2 1 - - 5
13.08.2018 08:00:00 20,0 19,3 5 3 SW 1015,6 3,0
13.08.2018 07:00:00 20,0 19,0 5 3 WSW - 10
13.08.2018 06:00:00 21,0 18,0 4 2 - - 10
13.08.2018 05:00:00 21,0 18,0 5 3 SW - 10
13.08.2018 04:00:00 20,0 18,0 5 3 SSW - 10
13.08.2018 03:00:00 21,0 18,0 5 3 S - 10
13.08.2018 02:00:00 20,0 18,0 8 4 S - 10
13.08.2018 01:00:00 20,0 18,0 5 3 S - 10
13.08.2018 00:00:00 21,0 19,0 8 4 S - 10
12.08.2018 23:00:00 22,0 20,0 8 4 WSW - 10
12.08.2018 22:00:00 23,0 19,0 8 4 W - 10
12.08.2018 21:00:00 23,0 19,0 8 4 WSW - 10
12.08.2018 20:00:00 23,8 19,1 8 4 WSW 1014,8 10
12.08.2018 19:00:00 23,0 19,0 9 5 - - 10
12.08.2018 18:00:00 25,0 20,0 9 5 WSW - 10
12.08.2018 17:00:00 25,0 19,8 9 5 - 1014,1 10
12.08.2018 16:00:00 24,0 21,0 13 7 WNW - 10
12.08.2018 15:00:00 25,0 20,0 13 7 - - 10
12.08.2018 14:00:00 26,9 21,0 15 8 N 1014,5 30
12.08.2018 13:00:00 25,0 20,0 13 7 N - 10
12.08.2018 12:00:00 26,0 20,0 9 5 NE - 10
12.08.2018 11:00:00 25,1 19,5 8 4 NNE 1015,2 10
12.08.2018 10:00:00 24,0 20,0 8 4 WSW - 10
12.08.2018 09:00:00 22,0 20,0 4 2 - - 10
12.08.2018 08:00:00 20,0 18,8 2 1 - 1015,3 10
12.08.2018 07:00:00 20,0 19,0 4 2 - - 10
12.08.2018 06:00:00 20,0 19,0 5 3 S - 10
12.08.2018 05:00:00 20,0 19,0 2 1 - - 10
12.08.2018 04:00:00 21,0 20,0 4 2 - - 10
12.08.2018 03:00:00 21,0 20,0 5 3 SW - 10
12.08.2018 02:00:00 21,0 20,0 9 5 SW - 9
12.08.2018 01:00:00 22,0 20,0 9 5 WSW - 10
12.08.2018 00:00:00 22,0 20,0 8 4 WSW - 10
11.08.2018 23:00:00 23,0 21,0 8 4 WSW - 10
11.08.2018 22:00:00 23,0 21,0 4 2 - - 10
11.08.2018 21:00:00 25,0 21,0 5 3 W - 10
11.08.2018 20:00:00 27,9 19,9 9 5 N 1018,3 10
11.08.2018 19:00:00 28,0 22,0 8 4 N - 10
11.08.2018 18:00:00 28,0 21,0 11 6 N - 10
11.08.2018 17:00:00 28,3 19,2 13 7 NNE 1019,2 10
11.08.2018 16:00:00 28,0 21,0 15 8 NNE - 10
11.08.2018 15:00:00 26,0 20,0 9 5 N - 10
11.08.2018 14:00:00 24,5 19,1 9 5 N 1021,9 10
11.08.2018 13:00:00 23,0 18,0 11 6 NNE - 10
11.08.2018 12:00:00 23,0 17,0 9 5 NNE - 10
11.08.2018 11:00:00 21,1 14,7 2 1 - 1023,6 10
11.08.2018 10:00:00 19,0 15,0 2 1 - - 10
11.08.2018 09:00:00 17,0 15,0 4 2 - - 10
11.08.2018 08:00:00 16,4 14,6 8 4 S 1024,2 10
11.08.2018 07:00:00 16,0 14,0 5 3 SSE - 10
11.08.2018 06:00:00 16,0 14,0 5 3 S - 10
11.08.2018 05:00:00 16,0 15,0 4 2 SSE - 10
11.08.2018 04:00:00 16,0 15,0 5 3 SSE - 10
11.08.2018 03:00:00 17,0 15,0 5 3 S - 10
11.08.2018 02:00:00 17,0 16,0 5 3 S - 10
11.08.2018 01:00:00 18,0 16,0 5 3 S - 10
11.08.2018 00:00:00 18,0 16,0 4 2 - - 10
10.08.2018 23:00:00 19,0 17,0 8 4 S - 10
10.08.2018 22:00:00 21,0 15,0 9 5 NE - 10
10.08.2018 21:00:00 22,0 16,0 11 6 NNE - 10
10.08.2018 20:00:00 22,4 15,3 11 6 NNE 1024,7 10
10.08.2018 19:00:00 23,0 16,0 13 7 NNE - 10
10.08.2018 18:00:00 23,0 16,0 15 8 NNE - 10
10.08.2018 17:00:00 24,4 15,3 13 7 NNE 1024,5 10
10.08.2018 16:00:00 25,0 16,0 16 9 NNE - 10
10.08.2018 15:00:00 25,0 17,0 15 8 NNE - 10
10.08.2018 14:00:00 24,0 15,0 15 8 NNE 1024,8 10
10.08.2018 13:00:00 23,0 15,0 13 7 NE - 10
10.08.2018 12:00:00 23,0 17,0 9 5 NE - 10
10.08.2018 11:00:00 21,1 15,6 5 3 N 1025,7 10
10.08.2018 10:00:00 20,0 16,0 2 1 - - 10
10.08.2018 09:00:00 18,0 15,0 4 2 - - 10
10.08.2018 08:00:00 16,3 15,2 5 3 SSE 1025,6 10
10.08.2018 07:00:00 16,0 15,0 5 3 SSE - 10
10.08.2018 06:00:00 16,0 16,0 8 4 S - 10
10.08.2018 05:00:00 17,0 16,0 8 4 SE - 10
10.08.2018 04:00:00 17,0 16,0 8 4 SE - 10
10.08.2018 03:00:00 18,0 16,0 5 3 SSE - 10
10.08.2018 02:00:00 18,0 16,0 9 5 SSE - 10
10.08.2018 01:00:00 18,0 16,0 9 5 S - 10
10.08.2018 00:00:00 18,0 16,0 9 5 S - 10
09.08.2018 23:00:00 18,0 16,0 11 6 S - 10
09.08.2018 22:00:00 18,0 16,0 9 5 S - 10
09.08.2018 21:00:00 19,0 18,0 5 3 S - 10
09.08.2018 20:00:00 19,4 17,2 4 2 - 1023,5 9
09.08.2018 19:00:00 20,0 17,0 15 8 SSW - 10
09.08.2018 18:00:00 20,0 16,0 13 7 WNW - 10
09.08.2018 17:00:00 23,2 16,0 15 8 WNW 1022,2 10
09.08.2018 16:00:00 22,0 16,0 15 8 WNW - 10
09.08.2018 15:00:00 20,0 16,0 16 9 WNW - 10
09.08.2018 14:00:00 21,4 16,1 16 9 W 1021,2 10
09.08.2018 13:00:00 19,0 17,0 11 6 SW - 7
09.08.2018 12:00:00 19,0 17,0 15 8 WSW - 10
09.08.2018 11:00:00 18,2 16,2 11 6 WSW 1019,6 7
09.08.2018 10:00:00 18,0 17,0 9 5 SW - 9
09.08.2018 09:00:00 18,0 16,0 16 9 SW - 6
09.08.2018 08:00:00 18,0 15,6 15 8 SW 1017,1 10
09.08.2018 07:00:00 18,0 16,0 15 8 SW - 10
09.08.2018 06:00:00 18,0 16,0 16 9 SW - 10
09.08.2018 05:00:00 20,0 16,0 22 12 WSW - 10
09.08.2018 04:00:00 19,0 16,0 26 14 WSW - 10
09.08.2018 03:00:00 19,0 17,0 31 17 W - 2,7
09.08.2018 02:00:00 21,0 20,0 11 6 SW - 10
09.08.2018 01:00:00 21,0 20,0 2 1 - - 3,5
09.08.2018 00:00:00 22,0 21,0 9 5 WNW - 4,3
08.08.2018 23:00:00 23,0 21,0 8 4 NNW - 10

tt = Température de l'air
td = dewpoint
ff = Vitesse du vent
dd = Direction du vent
ppp = reduced air pressure
vv = visibility

stations d'obs. à proximité